This is the latest recevied weather packets stored in our database for station/object F1ZVN-13. If no packets are shown the sender has not sent any weather packets the latest 10 day(s).
| Time | Temp. | Humidity | Pressure | Rain* | Wind** | Luminosity | Snow |
|---|---|---|---|---|---|---|---|
| 1778325187 | 8.33° C | 66% | 1004.3 hPa | 0 mm | 0 m/s | - | - |
| 1778325067 | 8.33° C | 65% | 1004.5 hPa | 0 mm | 0 m/s | - | - |
| 1778324945 | 8.33° C | 65% | 1004.5 hPa | 0 mm | 0 m/s | - | - |
| 1778324858 | 8.33° C | 62% | 1004.5 hPa | 0 mm | 0 m/s | - | - |
| 1778324823 | 8.33° C | 62% | 1004.5 hPa | 0 mm | 0 m/s | - | - |
| 1778324733 | 8.33° C | 62% | 1004.6 hPa | 0 mm | 0 m/s | - | - |
| 1778324700 | 8.33° C | 62% | 1004.6 hPa | 0 mm | 0 m/s | - | - |
| 1778324689 | 8.33° C | 63% | 1004.7 hPa | 0 mm | 0 m/s | - | - |
| 1778324582 | 8.33° C | 63% | 1004.7 hPa | 0 mm | 0 m/s | - | - |
| 1778324458 | 8.33° C | 59% | 1004.6 hPa | 0 mm | 0 m/s | - | - |
| 1778324338 | 8.33° C | 64% | 1004.6 hPa | 0 mm | 0 m/s | - | - |
| 1778324223 | 8.33° C | 61% | 1004.7 hPa | 0 mm | 0 m/s | - | - |
| 1778324101 | 8.33° C | 61% | 1004.7 hPa | 0 mm | 0 m/s | - | - |
| 1778323735 | 8.33° C | 61% | 1004.7 hPa | 0 mm | 0 m/s | - | - |
| 1778323614 | 8.33° C | 63% | 1004.7 hPa | 0 mm | 0 m/s | - | - |
| 1778323488 | 8.33° C | 60% | 1004.7 hPa | 0 mm | 0 m/s | - | - |
| 1778323245 | 8.33° C | 61% | 1004.7 hPa | 0 mm | 0 m/s | - | - |
| 1778323135 | 7.78° C | 61% | 1004.6 hPa | 0 mm | 0 m/s | - | - |
| 1778323001 | 7.78° C | 61% | 1004.7 hPa | 0 mm | 0 m/s | - | - |
| 1778322915 | 7.78° C | 60% | 1004.7 hPa | 0 mm | 0 m/s | - | - |
| 1778322881 | 7.78° C | 60% | 1004.7 hPa | 0 mm | 0 m/s | - | - |
| 1778322640 | 7.78° C | 63% | 1004.9 hPa | 0 mm | 0 m/s | - | - |
| 1778322400 | 7.78° C | 63% | 1004.9 hPa | 0 mm | 0 m/s | - | - |
| 1778322311 | 7.78° C | 63% | 1004.7 hPa | 0 mm | 0 m/s | - | - |
| 1778322310 | 7.78° C | 63% | 1004.7 hPa | 0 mm | 0 m/s | - | - |
* Rain latest hour (hover to see other rain measurements)
** Current wind speed in m/s (hover to see current wind gust speed)